User: anonymous   Login
Location: Unspecified
(0.0000°N, 0.0000°E)
Time: 18:36:57
(UTC+00:00)
Language:

IRAS - Orbit

View from above orbital plane
View from above orbital plane
View from above satellite
View from above satellite

Ground track
Ground track

The orbit data is extracted from the following two-line orbital elements,

1 13777U 83004A   19051.97127821 +.00000365 +00000-0 +27486-3 0  9997
2 13777 098.9466 239.7136 0019351 159.4299 333.6469 14.00408519512170
Epoch (UTC): 20 February 2019 23:18:38
Eccentricity: 0.0019351
inclination: 98.9466°
perigee height: 878 km
apogee height: 906 km
right ascension of ascending node: 239.7136°
argument of perigee: 159.4299°
revolutions per day: 14.00408519
mean anomaly at epoch: 333.6469°
orbit number at epoch: 51217

The dashed part of the orbit path shows where the satellite is in the earth's shadow,  

DLR